lunes 26 septiembre, 2022
Inicio / INTERNACIONALES / WRC / TÄNAK VOLVIÓ A LA VICTORIA EN BÉLGICA
Manfrey

TÄNAK VOLVIÓ A LA VICTORIA EN BÉLGICA

El tercer triunfo de la temporada para Ott Tänak llegó en el Ypres Rally de Bélgica 2022, en el cierre de la prueba este domingo.

El estonio de Hyundai y el Toyota de Elfyn Evans pelearon por la victoria hasta el final, especialmente en las últimas cuatro especiales de la carrera.

Así, el representante de la marca surcoreana se queda con el triunfo por apenas cinco segundos exactos de ventaja con respecto al británico Evans.

La última salida a los caminos asfaltados de Bélgica, el Power Stage, quedó en manos de Kalle Rovanperä que así pudo sumar por esos cinco puntos extra, luego de lo que había sido abandono en la jornada de ayer.

Por lo tanto, ahora la diferencia en el campeonato se ha reducido a 72 unidades, ya que tiene 203 puntos Rovanperä y 131 Tänak, cuando restan cuatro fechas por disputarse.

La próxima cita de la temporada será del 8 al 11 de septiembre en Grecia, el «Rally de Acrópolis».

Clasificador final – Ypres Rally de Bélgica 2022:

POS. PILOTO NAVEGANTE AUTO TIEMPO DIF.
1 8 O. TÄNAK M. JÄRVEOJA i20 N Rally1 HYBRID 2:25:38.9
2 33 E. EVANS S. MARTIN GR Yaris Rally1 HYBRID 2:25:43.9 +5.0
3 4 E. LAPPI J. FERM GR Yaris Rally1 HYBRID 2:27:20.5 +1:41.6
4 2 O. SOLBERG E. EDMONDSON i20 N Rally1 HYBRID 2:29:07.4 +3:28.5
5 18 T. KATSUTA A. JOHNSTON GR Yaris Rally1 HYBRID 2:31:45.0 +6:06.1
6 24 S. LEFEBVRE A. MALFOY C3 2:35:24.6 +9:45.7
7 20 A. MIKKELSEN T. ERIKSEN Fabia Evo 2:35:42.7 +10:03.8
8 21 Y. ROSSEL V. SARREAUD C3 2:36:33.7 +10:54.8
9 31 C. INGRAM C. DREW Fabia Evo 2:36:59.7 +11:20.8
10 22 N. GRYAZIN K. ALEKSANDROV Fabia Evo 2:37:05.7 +11:26.8
11 25 G. MUNSTER L. LOUKA i20 N 2:37:07.8 +11:28.9
12 26 V. VERSCHUEREN F. CUVELIER Polo GTI 2:38:19.0 +12:40.1
13 48 G. BUX N. GILSOUL Fabia Evo 2:38:33.7 +12:54.8
14 49 M. POTTY R. HERMAN C3 2:38:39.2 +13:00.3
15 50 S. BEDORET F. GILBERT Fabia Evo 2:39:04.0 +13:25.1
16 36 A. KREMER T. GOTTSCHALK Fabia Evo 2:41:07.2 +15:28.3
17 28 F. LOIX P. TSJOEN Fabia Evo 2:41:31.3 +15:52.4
18 27 D. VANNESTE K. D’ALLEINE C3 2:42:58.0 +17:19.1
19 44 G. GREENSMITH J. ANDERSSON Puma Rally1 HYBRID 2:44:19.3 +18:40.4
20 11 T. NEUVILLE M. WYDAEGHE i20 N Rally1 HYBRID 2:45:29.4 +19:50.5
21 29 M. BULACIA D. VALLEJO Fabia Evo 2:45:47.0 +20:08.1
22 76 A. MOLLE T. WALBRECQ A110 2:46:29.4 +20:50.5
23 54 S. BÉCAERT J. VANDERSARREN Fiesta 2:47:20.5 +21:41.6
24 34 N. REYNVOET D. PATTYN Fabia Evo 2:47:25.4 +21:46.5
25 72 P. LIETAER W. KNOCKAERT A110 2:47:40.1 +22:01.2
26 55 S. FERNANDES C. LEROY Fabia 2:47:51.1 +22:12.2
27 59 P. SNIJERS W. SOENENS Fiesta Rally3 2:49:01.6 +23:22.7
28 38 N. SIMPSON M. GIBSON Fabia Evo 2:49:30.1 +23:51.2
29 37 O. BURRI A. LEVRATTI i20 N 2:50:29.1 +24:50.2
30 75 P. MAEYAERT Y. DEWULF E30 M3 2:50:36.6 +24:57.7
31 85 T. RENSONNET L. DUMONT Clio Rally4 2:50:39.4 +25:00.5
32 87 S. DOLFEN N. PIERPONT Corsa Rally4 2:51:24.3 +25:45.4
33 57 N. STAMPAERT C. DOUBLET Fiesta 2:52:32.4 +26:53.5
34 45 J. ČERNÝ T. WOODBURN Fiesta Rally3 2:53:14.2 +27:35.3
35 86 J. DEWILDE J. VANDENBUSSCHE 208 Rally4 2:54:05.7 +28:26.8
36 61 M. SOETE J. DELEPIERRE Fabia 2:54:59.7 +29:20.8
37 40 E. BOLAND . MJ Fiesta MkII 2:55:49.4 +30:10.5
38 98 C. NIELSEN W. HANSSENS Clio RS Line 2:56:06.3 +30:27.4
39 64 E. VERBEKE H. BOUSSERY Fiesta MkII 2:56:18.3 +30:39.4
40 89 M. MERLEVEDE T. CLOET 208 2:56:58.5 +31:19.6
41 56 R. HODENIUS D. THIERIE C3 2:57:06.6 +31:27.7
42 94 J. GUIBERT L. GRACIAL Fiesta 2:58:04.3 +32:25.4
43 101 M. VAN DEN BRINK L. BAKKER Clio RS Line 2:59:20.1 +33:41.2
44 97 F. PERRARD F. LECLERCQ Clio RS Line 2:59:55.0 +34:16.1
45 99 L. DHAENE F. GEERLANDT Clio RS Line 3:00:54.8 +35:15.9
46 83 V. VERSTRAETE C. DEWICKERE Fiesta Rally3 3:01:36.5 +35:57.6
47 78 J. DEKENS R. GOVAERTS 991 GT3 3:01:40.1 +36:01.2
48 82 B. SOBRY J. BREYNE Fiesta Rally3 3:02:00.7 +36:21.8
49 88 F. BERVILLE D. KAMMERSGAARD Adam 3:03:15.8 +37:36.9
50 73 D. VANWIJNSBERGHE V. VALCKE E30 M3 3:03:16.3 +37:37.4
51 47 Z. LÁSZLÓ T. KÜRTI Fiesta Rally3 3:03:56.0 +38:17.1
52 93 L. WALBRECQ M. ROSSIGNOL 208 3:04:11.0 +38:32.1
53 58 S. PAJARI E. MÄLKÖNEN Fiesta Rally3 3:05:43.5 +40:04.6
54 43 H. VOSSEN H. VAN GOOR Fiesta 3:06:12.7 +40:33.8
55 95 S. VANDAELE T. DEBRUYNE 208 3:08:45.4 +43:06.5
56 100 G. PERRARD B. DAGHELET Clio RS Line 3:09:16.4 +43:37.5
57 53 A. CACHON A. VELA C3 3:09:49.4 +44:10.5
58 96 J. DEPREDOMME E. VAN DE VIVERE Fiesta 3:14:54.0 +49:15.1
59 60 F. ROUSSEL A. COULOMBEL DS3 3:20:25.1 +54:46.2
60 51 J. VERSTAPPEN H. VAN KOPPEN C3 3:20:42.9 +55:04.0
61 41 M. DÍAZ-ABOITIZ J. HEREU Fabia Evo 3:28:19.5 +1:02:40.6
62 69 K. ROVANPERÄ J. HALTTUNEN GR Yaris Rally1 HYBRID 3:36:08.4 +1:10:29.5
63 42 C. BREEN P. NAGLE Puma Rally1 HYBRID 3:36:38.3 +1:10:59.4
64 65 T. VAN PARIJS K. HEYNDRICKX 997 GT3 3:41:56.1 +1:16:17.2
65 84 G. PYCK E. MOURISSE Clio Rally4 3:48:57.6 +1:23:18.7
66 39 O. FUKUNAGA M. SAIDA Fabia Evo 4:02:58.0 +1:37:19.1
67 63 P. DAVROUX P. MILLEVILLE Fabia 4:05:50.8 +1:40:11.9
68 81 C. VANDAMME K. DECLERCK A110 4:15:09.3 +1:49:30.4
69 46 E. BRAZZOLI M. FENOLI Fiesta Rally3 4:46:01.1 +2:20:22.2

 

 

 

 

 

 

 

 

 

 

 

 

 

Fuente: Campeones

JEA

Te puede interesar

OGIER CONFIRMÓ QUE DISPUTARÁ EL RESTO DE LAS PRUEBAS DEL WRC

Sébastien Ogier ha confirmado hoy que disputará todas las rondas restantes del Campeonato Mundial de …